Regional Weather Roundup
Issued by NWS Upton, NY

Current Version | Previous Version | Graphics & Text | Print | Product List | Glossary Off
Versions: 1 2 3 4 5 6 7 8 9 10 11 12 13 14 15 16 17 18 19 20 21 22 23 24 25 26 27 28 29 30 31 32 33 34 35 36 37 38 39 40 41 42 43 44 45 46 47 48 49 50

000
ASUS41 KOKX 111404
RWROKX

REGIONAL WEATHER ROUNDUP
NATIONAL WEATHER SERVICE NEW YORK NY
900 AM EST THU FEB 11 2016

NOTE: "FAIR" INDICATES FEW OR NO CLOUDS BELOW 12,000 FEET WITH NO
SIGNIFICANT WEATHER AND/OR OBSTRUCTIONS TO VISIBILITY.

NYZ071-072-176-178-NJZ106-104-111500-
NEW YORK CITY METRO AREA


CITY           SKY/WX    TMP DP  RH WIND       PRES   REMARKS
CENTRAL PARK   SUNNY     23  -1  35 W14G29    29.91R WCI  11
LAGUARDIA APRT MOSUNNY   26   3  37 W16G28    29.90R WCI  14
KENNEDY INTL   MOSUNNY   26  -1  31 W17G26    29.92R WCI  13
NEWARK/LIBERTY MOSUNNY   25   1  35 W21G28    29.92R WCI  11
BRNX BOT. GARD   N/A     25   1  36 NW12      29.91R WCI  14
TETERBORO      SUNNY     24   2  38 W14G26    29.90R WCI  12
$$

NYZ177-179-078>081-111500-
LONG ISLAND NEW YORK

CITY           SKY/WX    TMP DP  RH WIND       PRES   REMARKS
FARMINGDALE    SUNNY     24   2  38 W16G25    29.89R WCI  11
ISLIP          MOSUNNY   24   2  38 NW20      29.85R WCI  10
SHIRLEY        SUNNY     24   2  38 NW24G36   29.86R WCI   8
RIVERHEAD        N/A     27  -4  26 NW16      29.81R WCI  14
WESTHAMPTON    SUNNY     24   4  42 NW24G35   29.84R WCI   8
EAST HAMPTON   FAIR      26  10  50 NW12G20   29.80R WCI  15
MONTAUK POINT    N/A     26  16  65 W16G24    29.80R WCI  14
$$

NYZ052-065-067-111500-
HUDSON VALLEY

CITY           SKY/WX    TMP DP  RH WIND       PRES   REMARKS
WHITE PLAINS   MOSUNNY   21   0  39 W20G29    29.84R WCI   6
NEWBURGH       MOSUNNY   19   5  53 W17G29    29.84R WCI   4
MONTGOMERY     SUNNY     21   3  45 W17G28    29.84S WCI   7
POUGHKEEPSIE   MOSUNNY   23   2  40 W15G23    29.85R WCI  10
ALBANY         PTSUNNY   20   3  48 W17G23    29.81R WCI   5
$$

NJZ001-105-106-008-010-013-015-019>022-104-111500-
NEW JERSEY

CITY           SKY/WX    TMP DP  RH WIND       PRES   REMARKS
NEWARK/LIBERTY MOSUNNY   25   1  35 W21G28    29.92R WCI  11
TETERBORO      SUNNY     24   2  38 W14G26    29.90R WCI  12
CALDWELL       SUNNY     23  -1  35 W15G23    29.90R WCI  10
MORRISTOWN     MOSUNNY   23   3  42 W15G24    29.91R WCI  10
SOMERVILLE     SUNNY     23   4  44 W12G24    29.93R WCI  12
SUSSEX         SUNNY     20   2  45 W10G20    29.87R WCI   9
ANDOVER          N/A     19   1  45 NW12      29.88R WCI   7
TRENTON        CLOUDY    22   6  50 NW12G21   29.96R WCI  10
MILLVILLE      MOSUNNY   25   8  48 W17G28    30.03R WCI  12
ATLANTIC CITY  SUNNY     24   6  46 W21G30    29.99R WCI   9
WRIGHTSTOWN    FLURRIES  23  13  63 W10G21    29.95R WCI  13
TOMS RIVER     MOSUNNY   25   9  50 W15G24    29.97R WCI  12
BELMAR         MOSUNNY   25   1  36 W15G22    29.94R WCI  12
$$

PAZ047>061-062-071-111500-
EASTERN PENNSYLVANIA

CITY           SKY/WX    TMP DP  RH WIND       PRES   REMARKS
PHILADELPHIA   MOSUNNY   23   5  46 W17G31    30.02R WCI   9
ALLENTOWN      LGT SNOW  19  10  68 W8        29.94R WCI   9
SCRANTON       MOSUNNY   15   1  53 W14G23    29.87R WCI   0
$$

CTZ002-004>006-009-010-012-RIZ004-006-007-MAZ004-011-015-111500-
SOUTHERN NEW ENGLAND
 IN CT

CITY           SKY/WX    TMP DP  RH WIND       PRES   REMARKS
BRADLEY INTL   PTSUNNY   22   7  52 W18       29.78R WCI   7
HARTFORD       CLOUDY    24  10  55 W14       29.81R WCI  12
DANBURY        SUNNY     21  -2  36 W13G28    29.83R WCI   9
WTRBRY/OXFORD  MOSUNNY   21  -2  35 NW8G20    29.77R WCI  12
BRIDGEPORT     SUNNY     24   1  36 W14G35    29.84R WCI  12
MERIDEN        CLOUDY    23   7  50 NW9G17    29.81R WCI  13
NEW HAVEN      MOSUNNY   24   3  40 W12G25    29.82R WCI  13
CHESTER        PTSUNNY   23  12  63 W9G21     29.78R WCI  13
GROTON         FLURRIES  24  18  77 W18G28    29.79R WCI  10
WILLIMANTIC    CLOUDY    24   9  52 NW13G22   29.78R WCI  12

 IN RI

CITY           SKY/WX    TMP DP  RH WIND       PRES   REMARKS
PROVIDENCE     CLOUDY    26  14  60 W13       29.75R WCI  15
BLOCK ISLAND   CLOUDY    27  21  80 NW12G22   29.75R WCI  16
WESTERLY       CLOUDY    24  18  77 VRB7G17   29.78R WCI  16

 IN MA

CITY           SKY/WX    TMP DP  RH WIND       PRES   REMARKS
BOSTON         CLOUDY    26  14  60 W14       29.71R WCI  14
WORCESTER      LGT SNOW  19  12  74 W14       29.66R WCI   6
WESTFIELD      CLOUDY    21   7  54 NW16G23   29.77R WCI   7
PROVINCETOWN   CLOUDY    30  21  69 NW12      29.69S WCI  20
NANTUCKET      PTSUNNY   32  20  61 NW16      29.71R WCI  21
$$

ANZ330-335-338-340-345-350-353-355-111500-
COASTAL MARINE OBSERVATIONS


STATION/POSITION TIME  SKY/WX   TEMP    WIND        PRES    VSBY  WAVE
                                AIR SEA DIR/SP/G                  HT/PER
                 (UTC)          (F)     (DEG/KT/KT) (MB)    (MI)  (FT/S)
NY HARB ENTRANCE NOT AVBL
4S FIRE IS       NOT AVBL
20S FIRE ISLAND  NOT AVBL
GREAT SOUTH BAY  NOT AVBL
23SW MTP         NOT AVBL
HUDSON CANYON    NOT AVBL
KINGS POINT      1300            24 37  330/ 17/ 24 1011.4
EXECUTION ROCKS  NOT AVBL
CENTRAL LI SOUND 1300            26     290/ 19/ 25   N/A           4/ 5
EASTERN LI SOUND 1300            28 41  290/ 17/ 23   N/A
ROBBINS REEF     1300            23     280/ 19/ 24 1011.8
$$


>>>>>>>>>>>>>>>>>>>>>>>>>>>> KEY <<<<<<<<<<<<<<<<<<<<<<<<<<<
>                                                          <
>     SKY/WX - SKY CONDITION/PRESENT WEATHER               <
>     TMP    - TEMPERATURE IN FAHRENHEIT                   <
>     DP     - DEWPOINT IN FAHRENHEIT                      <
>     RH     - RELATIVE HUMIDITY IN PERCENT                <
>     WIND   - DIRECTION AND SPEED IN MPH                  <
>     PRES   - MEAN SEA LEVEL PRESSURE IN INCHES OF HG     <
>     WCI    - WIND CHILL INDEX                            <
>     VSB    - VISIBILITY IN MILES                         <
>     HX     - HEAT INDEX                                  <
>     TC     - TEMPERATURE IN CELSIUS                      <
>     VRB    - VARIABLE WIND DIRECTION                     <
>                                                          <
>>>>>>>>>>>>>>>>>>>>>>>>>>>> KEY <<<<<<<<<<<<<<<<<<<<<<<<<<<





USA.gov is the U.S. government's official web portal to all federal, state and local government web resources and services.